AMC-15

Last updated on Wed Nov 20 2024 00:02:39 GMT+0000 (Coordinated Universal Time)

1 28446U 04041A 24323.84536314 -.00000086 00000+0 00000+0 0 9994 2 28446 0.0457 64.8450 0002473 166.6000 26.2237 1.00271717 73541
UTC large
Height (km)
Speed (km/s)
/
Latitude / Longitude
Inclination (degrees)
Orbital Period (minutes)
Azimuth
Elevation
Range (km)
Doppler Factor

Next 0 passes for location: London (51.5072 / 0.1276)

Sorry there are no passes over London.